Regional Weather Roundup
Issued by NWS

Home | Current Version | Previous Version | Graphics & Text | Print | Product List | Glossary On
Versions: 1 2 3 4 5 6 7 8 9 10 11 12 13 14 15 16 17 18 19 20 21 22 23 24 25 26 27 28 29 30 31 32 33 34 35 36 37 38 39 40 41 42 43 44 45 46 47 48 49 50
000
ASUS45 KABQ 041910
RWRNM
NEW MEXICO REGIONAL WEATHER ROUNDUP
NATIONAL WEATHER SERVICE ALBUQUERQUE NM
100 PM MDT FRI SEP 04 2015

NOTE: "FAIR" MEANS FEW OR NO CLOUDS BELOW 12,000 FEET AGL WITH NO
       SIGNIFICANT WEATHER OR OBSTRUCTIONS TO VISION.

      THIS PRODUCT IS RELEASED AS TWO VERSIONS.  ONE VERSION NEAR
      THE TOP OF THE HOUR CONTAINING PRELIMINARY DATA FROM ALBUQUERQUE
      AND OTHER STATIONS.  A FINAL VERSION WITH ADDITIONAL DATA IS
      ISSUED ABOUT 10 MINUTES AFTER THE HOUR.

NMZ501-503-504-510>518-042000-
NORTHWEST PLATEAU/NORTHCENTRAL MOUNTAINS

CITY           SKY/WX    TMP DP  RH WIND       PRES   REMARKS
FARMINGTON     PTSUNNY   73  50  44 SE9G17    30.09F
LOS ALAMOS     CLOUDY    69  43  39 S10       30.24F
SANTA FE       CLOUDY    77  43  29 SW9       30.17F
TAOS           CLOUDY    73  41  31 W7        30.23S
ANGEL FIRE     CLOUDY    66  46  49 SE7       30.31F

$$
NMZ402-403-502-505>509-042000-
WESTCENTRAL MOUNTAINS/SOUTHWEST MOUNTAINS

CITY           SKY/WX    TMP DP  RH WIND       PRES   REMARKS
GALLUP         MOSUNNY   74  50  42 S9        30.16F
GRANTS         CLOUDY    71  51  49 S10G17    30.20S
SILVER CITY      N/A     72  54  53 CALM      30.17F

$$
NMZ407-409-411-412-042000-
SOUTHERN DESERTS

CITY           SKY/WX    TMP DP  RH WIND       PRES   REMARKS
LORDSBURG      CLOUDY    72  57  60 CALM      30.08F
DEMING         CLOUDY    77  56  48 W9        30.09F
LAS CRUCES     CLOUDY    82  50  32 W8G16     30.08F
HOLLOMAN AFB   PTSUNNY   84  49  30 NW6       30.03F
ALAMOGORDO     CLOUDY    82  48  30 NW3       30.06S
T OR C         LGT RAIN  70  63  78 N6        30.11F

$$
NMZ519>523-042000-
CENTRAL VALLEYS/CENTRAL HIGHLANDS

CITY           SKY/WX    TMP DP  RH WIND       PRES   REMARKS
ALBUQUERQUE    CLOUDY    77  50  38 W9        30.12F
DOUBLE EAGLE   PTSUNNY   79  48  34 S3        30.16F
MORIARTY ARPT  CLOUDY    78  44  30 SW7       30.18F
CLINES CORNERS CLOUDY    70  46  42 SW13      30.22F
BELEN          FAIR      78  47  33 SW9       30.12S
SOCORRO        RAIN      74  55  51 SW15      30.13R

$$
NMZ524>526-539-540-042000-
SOUTHCENTRAL MOUNTAINS

CITY           SKY/WX    TMP DP  RH WIND       PRES   REMARKS
RUIDOSO        CLOUDY    75  46  35 SW8       30.24F

$$
NMZ527>531-042000-
NORTHEAST HIGHLANDS/NORTHEAST PLAINS

CITY           SKY/WX    TMP DP  RH WIND       PRES   REMARKS
LAS VEGAS      CLOUDY    75  44  33 SW15G23   30.20F
RATON          CLOUDY    81  43  26 S10       30.12F
CLAYTON        CLOUDY    88  50  27 S16       30.05F

$$
NMZ532>537-042000-
EASTCENTRAL PLAINS

CITY           SKY/WX    TMP DP  RH WIND       PRES   REMARKS
TUCUMCARI      CLOUDY    87  50  27 S13       30.01F
CANNON AFB     PTSUNNY   89  50  26 S7        30.03F
CLOVIS AIRPORT PTSUNNY   90  52  27 SW6G16    30.05F

$$
NMZ028-029-538-042000-
SOUTHEAST PLAINS

CITY           SKY/WX    TMP DP  RH WIND       PRES   REMARKS
ROSWELL        PTSUNNY   92  50  23 S12G18    29.99F
ARTESIA        SUNNY     93  52  24 SE15G22   29.98F
CARLSBAD       SUNNY     95  50  21 SE12G21   29.96F
HOBBS          SUNNY     90  50  25 SE15G22   30.03F


$$



USA.gov is the U.S. government's official web portal to all federal, state and local government web resources and services.